sat.trackr.live / text

‹ back to catalog

ORBCOMM FM20

NORAD 25416 · 1998-046D

PAYLOAD ACTIVE UNKNOWN

§ Identity

Operator
Country
ORB
Launch date
1998-08-02
Launch site
ERAS
Launch vehicle
Mass (kg)
RCS (m²)
0.68

Purposes: comms

External: N2YO · Heavens-Above · Gunter

§ Orbital elements

Epoch: 2026-09-19T10:04:04.775808Z

Period
100.13 min
Inclination
44.9932°
Eccentricity
0.0001819
Mean motion
14.38175637 rev/d
Perigee alt
763.2 km
Apogee alt
765.8 km
Semi-major
7,142.7 km
B*
1.7420e-4
RAAN
164.5597°
Arg perigee
14.7774°
Mean anomaly
345.3127°
Rev number
47,035

§ Raw data

ORBCOMM FM201 25416U 98046D   26262.41949972  .00000391  00000+0  17420-3 0  99972 25416  44.9932 164.5597 0001819  14.7774 345.3127 14.38175637470356

JSON: /api/v1/satellites/25416 · /tle

For live sub-satellite position, see the globe view (requires WebGL).

§ Visibility from observer

Set your observer location to see the next 7 days of passes ≥ 10°. The values pass through the URL so the page stays shareable.

No JS? Fill the form by hand. The geolocation button needs JavaScript.